Washington, VA

10:45 AM EDT on April 28, 2017 (GMT -0400)
Ronald Reagan Washington National

Weather History for KDCA - November, 2012

Change the Weather History Date:

Thursday, November 29, 2012

  Actual Average Record
Temperature  
Mean Temperature 41 °F 45 °F  
Max Temperature 50 °F 52 °F 73 °F (1905)
Min Temperature 31 °F 37 °F 14 °F (1930)
Degree Days  
Heating Degree Days 24 20  
Month to date heating degree days 522 446  
Since 1 July heating degree days 690 675  
Cooling Degree Days 0 0  
Month to date cooling degree days 0 0  
Year to date cooling degree days 1975 1547  
Moisture  
Dew Point 26 °F    
Average Humidity 54    
Maximum Humidity 75    
Minimum Humidity 32    
Precipitation  
Precipitation 0.00 in 0.11 in 1.55 in (1963)
Month to date precipitation 0.60 3.06  
Year to date precipitation 29.42 36.58  
Snow  
Snow 0.00 in 0.10 in 0.90 in (1952)
Month to date snowfall T 0.5  
Since 1 July snowfall T 0.5  
Snow Depth 0.00 in    
Sea Level Pressure  
Sea Level Pressure 30.41 in    
Wind  
Wind Speed 5 mph (SSW)    
Max Wind Speed 15 mph    
Max Gust Speed 17 mph    
Visibility 10 miles    
Events      
T = Trace of Precipitation, MM = Missing Value Source: NWS Daily Summary

Daily Weather History Graph

Daily Weather History Graph

Search for Another Location

Airport or City:

Trip Planner

Search our weather history database for the weather conditions in past years. The results will help you decide how hot, cold, wet, or windy it might be!

Date:

Astronomy

Nov. 29, 2012 Rise Set
Actual Time 7:06 AM EST 4:47 PM EST
Civil Twilight 6:36 AM EST 5:16 PM EST
Nautical Twilight 6:03 AM EST 5:49 PM EST
Astronomical Twilight 5:31 AM EST 6:21 PM EST
Moon 5:48 PM EST (11/29) 7:51 AM EST (11/29)
Length of Visible Light 10h 39m
Length of Day
9h 40m
Full, 99% of the Moon is Illuminated
Nov 29
Full
Dec 6
Last Quarter
Dec 13
New
Dec 20
First Quarter
Dec 28
Full

Hourly Weather History & Observations

Time (EST) Temp. Windchill Dew Point Humidity Pressure Visibility Wind Dir Wind Speed Gust Speed Precip Events Conditions
12:52 AM 36.0 °F 33.3 °F 24.1 °F 62% 30.40 in 10.0 mi South 3.5 mph - N/A   Clear
1:52 AM 36.0 °F - 24.1 °F 62% 30.40 in 10.0 mi Calm Calm - N/A   Clear
2:52 AM 35.1 °F - 25.0 °F 67% 30.41 in 10.0 mi Calm Calm - N/A   Clear
3:52 AM 34.0 °F 31.0 °F 26.1 °F 73% 30.40 in 10.0 mi SSW 3.5 mph - N/A   Clear
4:52 AM 34.0 °F - 24.1 °F 67% 30.41 in 10.0 mi Calm Calm - N/A   Clear
5:52 AM 35.1 °F - 27.0 °F 72% 30.43 in 10.0 mi Calm Calm - N/A   Clear
6:52 AM 32.0 °F 28.7 °F 24.1 °F 73% 30.44 in 10.0 mi SW 3.5 mph - N/A   Clear
7:08 AM 33.8 °F - 23.0 °F 65% 30.44 in 10.0 mi Calm Calm - N/A   Mostly Cloudy
7:52 AM 34.0 °F 29.8 °F 25.0 °F 70% 30.45 in 10.0 mi SW 4.6 mph - N/A   Mostly Cloudy
8:52 AM 37.0 °F - 25.0 °F 62% 30.46 in 10.0 mi Calm Calm - N/A   Mostly Cloudy
9:52 AM 41.0 °F 39.0 °F 30.0 °F 65% 30.48 in 10.0 mi South 3.5 mph - N/A   Scattered Clouds
10:52 AM 48.0 °F - 23.0 °F 37% 30.48 in 10.0 mi WNW 9.2 mph - N/A   Partly Cloudy
11:52 AM 48.0 °F - 25.0 °F 41% 30.45 in 10.0 mi WSW 6.9 mph - N/A   Partly Cloudy
12:52 PM 50.0 °F - 21.0 °F 32% 30.42 in 10.0 mi WSW 5.8 mph - N/A   Partly Cloudy
1:52 PM 48.9 °F - 26.1 °F 41% 30.39 in 10.0 mi South 9.2 mph - N/A   Partly Cloudy
2:52 PM 48.9 °F - 26.1 °F 41% 30.36 in 10.0 mi South 11.5 mph - N/A   Clear
3:52 PM 48.0 °F - 25.0 °F 41% 30.37 in 10.0 mi South 9.2 mph - N/A   Clear
4:52 PM 46.9 °F - 23.0 °F 39% 30.36 in 10.0 mi SSW 8.1 mph - N/A   Partly Cloudy
5:52 PM 44.1 °F 40.1 °F 27.0 °F 51% 30.37 in 10.0 mi SSW 6.9 mph - N/A   Clear
6:52 PM 43.0 °F 38.2 °F 27.0 °F 53% 30.37 in 10.0 mi SSW 8.1 mph - N/A   Clear
7:52 PM 42.1 °F 37.7 °F 27.0 °F 55% 30.38 in 10.0 mi South 6.9 mph - N/A   Partly Cloudy
8:52 PM 39.9 °F 35.8 °F 28.9 °F 65% 30.38 in 10.0 mi SSW 5.8 mph - N/A   Clear
9:52 PM 39.9 °F 37.8 °F 30.0 °F 68% 30.38 in 10.0 mi South 3.5 mph - N/A   Clear
10:52 PM 41.0 °F - 28.9 °F 62% 30.37 in 10.0 mi Calm Calm - N/A   Partly Cloudy
11:52 PM 39.0 °F 34.0 °F 30.9 °F 73% 30.36 in 10.0 mi South 6.9 mph - N/A   Mostly Cloudy